User: anonymous   Login
Location: Brno
(49.2000°N, 16.6330°E)
Time: 02:24:38
(UTC+01:00)
Language:

BREEZE M DEB (TANK) - Orbit

View from above orbital plane
View from above orbital plane
View from above satellite
View from above satellite

Ground track
Ground track

The orbit data is extracted from the following two-line orbital elements,

1 28359U 04022B   18048.26265946  .00001360  00000-0  16143-3 0  9994
2 28359  49.4884 161.8460 4667462  76.9564 329.6536  6.20975904300508
Epoch (UTC): 17 February 2018 06:18:13
Eccentricity: 0.4667462
inclination: 49.4884°
perigee height: 289 km
apogee height: 11960 km
right ascension of ascending node: 161.8460°
argument of perigee: 76.9564°
revolutions per day: 6.20975904
mean anomaly at epoch: 329.6536°
orbit number at epoch: 30050

The dashed part of the orbit path shows where the satellite is in the earth's shadow,  

DLR